Weather History for Estherville, IA

Change the Weather History Date:

Sunday, September 25, 2011

  Actual Average Record
Temperature  
Mean Temperature 51 °F 57 °F  
Max Temperature 66 °F 70 °F 93 °F (1956)
Min Temperature 36 °F 44 °F 30 °F (2000)
Degree Days  
Heating Degree Days 14 9  
Month to date heating degree days 194 124  
Since 1 July heating degree days 196 156  
Cooling Degree Days 0 1  
Month to date cooling degree days 45 45  
Year to date cooling degree days 745 585  
Growing Degree Days 2 (Base 50)    
Moisture  
Dew Point 40 °F    
Average Humidity 65    
Maximum Humidity 93    
Minimum Humidity 37    
Precipitation  
Precipitation T in 0.12 in 2.50 in (2005)
Month to date precipitation 0.58 2.79  
Year to date precipitation 18.76  
Sea Level Pressure  
Sea Level Pressure 29.98 in    
Wind  
Wind Speed 5 mph (NE)    
Max Wind Speed 16 mph    
Max Gust Speed 20 mph    
Visibility 10 miles    
Events      
T = Trace of Precipitation, MM = Missing Value Source: NWS Daily Summary

Daily Weather History Graph

Daily Weather History Graph

Search for Another Location

Airport:

Trip Planner

Search our weather history database for the weather conditions in past years. The results will help you decide how hot, cold, wet, or windy it might be!

Date:

Astronomy

Sep. 25, 2011 Rise Set
Actual Time 7:09 AM CDT 7:11 PM CDT
Civil Twilight 6:40 AM CDT 7:39 PM CDT
Nautical Twilight 6:07 AM CDT 8:13 PM CDT
Astronomical Twilight 5:33 AM CDT 8:46 PM CDT
Moon 4:54 AM CDT (9/25) 5:54 PM CDT (9/25)
Length of Visible Light 12h 58m
Length of Day
12h 01m
Waning Crescent, 5% of the Moon is Illuminated
Sep 25
Waning Crescent
Sep 27
New
Oct 3
First Quarter
Oct 11
Full
Oct 19
Last Quarter

Hourly Weather History & Observations

Time (CDT) Temp. Windchill Dew Point Humidity Pressure Visibility Wind Dir Wind Speed Gust Speed Precip Events Conditions
12:52 AM 39.9 °F 36.7 °F 36.0 °F 86% 30.02 in 10.0 mi SE 4.6 mph - N/A   Clear
1:52 AM 39.9 °F 37.8 °F 36.0 °F 86% 30.02 in 10.0 mi SE 3.5 mph - N/A   Clear
2:52 AM 37.0 °F - 34.0 °F 89% 30.02 in 10.0 mi Calm Calm - N/A   Clear
3:52 AM 37.0 °F - 34.0 °F 89% 30.01 in 10.0 mi Calm Calm - N/A   Clear
4:52 AM 37.0 °F - 34.0 °F 89% 30.02 in 10.0 mi Calm Calm - N/A   Mostly Cloudy
5:52 AM 41.0 °F - 39.0 °F 93% 30.02 in 10.0 mi Calm Calm - N/A   Overcast
6:52 AM 42.1 °F 40.2 °F 39.9 °F 92% 30.01 in 10.0 mi WNW 3.5 mph - N/A   Overcast
7:52 AM 44.1 °F - 41.0 °F 89% 30.05 in 10.0 mi Calm Calm - N/A   Overcast
9:52 AM 54.0 °F - 43.0 °F 66% 30.04 in 10.0 mi Calm Calm - N/A   Partly Cloudy
10:52 AM 57.0 °F - 43.0 °F 59% 30.04 in 10.0 mi ESE 4.6 mph - N/A   Mostly Cloudy
11:52 AM 60.1 °F - 41.0 °F 49% 30.01 in 10.0 mi Variable 4.6 mph - N/A   Partly Cloudy
12:52 PM 62.1 °F - 41.0 °F 46% 29.99 in 10.0 mi Variable 6.9 mph - N/A   Mostly Cloudy
1:52 PM 63.0 °F - 41.0 °F 45% 29.96 in 10.0 mi East 12.7 mph - N/A   Partly Cloudy
2:52 PM 63.0 °F - 42.1 °F 46% 29.94 in 10.0 mi NE 9.2 mph 16.1 mph N/A   Scattered Clouds
3:52 PM 64.0 °F - 41.0 °F 43% 29.94 in 10.0 mi NE 10.4 mph 18.4 mph N/A   Mostly Cloudy
4:52 PM 66.0 °F - 39.9 °F 38% 29.92 in 10.0 mi NNE 10.4 mph - N/A   Partly Cloudy
5:52 PM 61.0 °F - 41.0 °F 48% 29.92 in 10.0 mi NNE 8.1 mph - N/A   Partly Cloudy
6:52 PM 59.0 °F - 41.0 °F 51% 29.92 in 10.0 mi NE 5.8 mph - N/A   Partly Cloudy
7:52 PM 51.1 °F - 41.0 °F 68% 29.93 in 10.0 mi North 5.8 mph - N/A   Partly Cloudy
8:52 PM 48.0 °F - 41.0 °F 77% 29.94 in 10.0 mi North 6.9 mph - N/A   Scattered Clouds
9:52 PM 46.0 °F 43.1 °F 39.9 °F 79% 29.94 in 10.0 mi North 5.8 mph - N/A   Clear
10:52 PM 48.0 °F - 42.1 °F 80% 29.94 in 10.0 mi North 6.9 mph - N/A   Overcast
11:52 PM 52.0 °F - 44.1 °F 74% 29.92 in 10.0 mi NNW 4.6 mph - N/A   Overcast